Weather History for Astoria, OR

Change the Weather History Date:

Sunday, March 10, 2013

  Actual Average Record
Temperature  
Mean Temperature 40 °F 46 °F  
Max Temperature 45 °F 53 °F 75 °F (1905)
Min Temperature 34 °F 38 °F 25 °F (1969)
Degree Days  
Heating Degree Days 25 19  
Month to date heating degree days 215 195  
Since 1 July heating degree days 3595 3537  
Cooling Degree Days 0 0  
Month to date cooling degree days 0 0  
Year to date cooling degree days 0 0  
Moisture  
Dew Point 41 °F    
Average Humidity 91    
Maximum Humidity 92    
Minimum Humidity 89    
Precipitation  
Precipitation 0.10 in 0.24 in 3.06 in (1903)
Month to date precipitation 1.33 2.52  
Year to date precipitation 16.69 19.91  
Snow  
Snow 0.00 in - - ()
Month to date snowfall 0.0  
Snow Depth 0.00 in    
Sea Level Pressure  
Sea Level Pressure 30.45 in    
Wind  
Wind Speed 2 mph (ENE)    
Max Wind Speed 7 mph    
Max Gust Speed 9 mph    
Visibility 6 miles    
Events Rain    
T = Trace of Precipitation, MM = Missing Value Source: NWS Daily Summary

Daily Weather History Graph

Daily Weather History Graph

Search for Another Location

Airport:

Trip Planner

Search our weather history database for the weather conditions in past years. The results will help you decide how hot, cold, wet, or windy it might be!

Date:

Astronomy

Mar. 10, 2013 Rise Set
Actual Time 7:37 AM PDT 7:14 PM PDT
Civil Twilight 7:07 AM PDT 7:44 PM PDT
Nautical Twilight 6:32 AM PDT 8:19 PM PDT
Astronomical Twilight 5:57 AM PDT 8:54 PM PDT
Moon 6:42 AM PDT (3/10) 6:28 PM PDT (3/10)
Length of Visible Light 12h 37m
Length of Day
11h 37m
Waning Crescent, 1% of the Moon is Illuminated
Mar 10
Waning Crescent
Mar 11
New
Mar 19
First Quarter
Mar 27
Full
Apr 2
Last Quarter

Hourly Weather History & Observations

Time (PDT) Temp. Windchill Dew Point Humidity Pressure Visibility Wind Dir Wind Speed Gust Speed Precip Events Conditions
12:55 AM 35.1 °F 32.2 °F 34.0 °F 96% 30.50 in 10.0 mi SE 3.5 mph - N/A   Clear
1:55 AM 35.1 °F 32.2 °F 33.1 °F 92% 30.49 in 10.0 mi East 3.5 mph - N/A   Overcast
3:55 AM 36.0 °F - 34.0 °F 93% 30.48 in 10.0 mi Calm Calm - N/A   Overcast
4:55 AM 37.4 °F - 35.6 °F 93% 30.49 in 10.0 mi Calm Calm - N/A Rain Light Rain
5:55 AM 37.0 °F - 36.0 °F 96% 30.50 in 10.0 mi Calm Calm - 0.01 in Rain Light Rain
6:55 AM 37.9 °F - 36.0 °F 93% 30.48 in 10.0 mi Calm Calm - 0.00 in   Overcast
7:55 AM 39.0 °F - 37.0 °F 93% 30.48 in 7.0 mi Calm Calm - 0.00 in   Overcast
8:55 AM 39.9 °F - 37.9 °F 93% 30.48 in 9.0 mi Calm Calm - 0.00 in   Overcast
9:12 AM 39.2 °F - 37.4 °F 93% 30.48 in 10.0 mi Calm Calm - 0.01 in   Overcast
9:24 AM 39.2 °F - 37.4 °F 93% 30.48 in 10.0 mi Calm Calm - 0.01 in Rain Light Rain
9:55 AM 41.0 °F - 39.0 °F 93% 30.48 in 6.0 mi Calm Calm - 0.02 in Rain Light Rain
10:10 AM 41.0 °F - 39.2 °F 93% 30.48 in 5.0 mi Calm Calm - 0.00 in Rain Light Rain
10:55 AM 42.1 °F 40.2 °F 39.9 °F 92% 30.48 in 4.0 mi ESE 3.5 mph - 0.03 in Rain Light Rain
11:38 AM 42.8 °F - 41.0 °F 93% 30.47 in 7.0 mi Calm Calm - 0.02 in Rain Light Rain
11:47 AM 42.8 °F 41.1 °F 41.0 °F 93% 30.47 in 9.0 mi SSE 3.5 mph - 0.02 in Rain Light Rain
11:55 AM 43.0 °F - 41.0 °F 93% 30.48 in 10.0 mi Calm Calm - 0.02 in   Overcast
12:28 PM 44.6 °F - 41.0 °F 87% 30.47 in 10.0 mi Calm Calm - N/A   Overcast
12:45 PM 44.6 °F 43.1 °F 41.0 °F 87% 30.47 in 7.0 mi Variable 3.5 mph - N/A   Overcast
12:55 PM 44.1 °F - 42.1 °F 93% 30.47 in 5.0 mi Calm Calm - N/A   Overcast
1:34 PM 44.6 °F 43.1 °F 42.8 °F 93% 30.47 in 2.5 mi NNE 3.5 mph - N/A   Overcast
1:52 PM 44.6 °F 42.2 °F 42.8 °F 93% 30.47 in 1.8 mi NNE 4.6 mph - N/A   Overcast
1:55 PM 44.1 °F 42.5 °F 42.1 °F 93% 30.46 in 1.5 mi North 3.5 mph - N/A   Overcast
2:05 PM 44.6 °F 41.4 °F 42.8 °F 93% 30.46 in 1.2 mi NNE 5.8 mph - N/A   Overcast
2:55 PM 44.1 °F 41.5 °F 42.1 °F 93% 30.45 in 1.2 mi NNE 4.6 mph - 0.01 in   Overcast
3:03 PM 44.6 °F 42.2 °F 42.8 °F 93% 30.45 in 1.5 mi NNE 4.6 mph - N/A   Overcast
3:39 PM 44.6 °F 41.4 °F 42.8 °F 93% 30.45 in 2.0 mi NNE 5.8 mph - N/A   Overcast
3:55 PM 44.1 °F 42.5 °F 43.0 °F 96% 30.45 in 2.0 mi NE 3.5 mph - N/A   Overcast
4:05 PM 44.6 °F 43.1 °F 42.8 °F 93% 30.44 in 1.5 mi East 3.5 mph - N/A   Overcast
4:35 PM 44.6 °F - 42.8 °F 93% 30.44 in 1.5 mi Calm Calm - 0.01 in   Overcast
4:55 PM 45.0 °F 42.6 °F 43.0 °F 93% 30.44 in 2.0 mi East 4.6 mph - 0.01 in   Overcast
5:20 PM 44.6 °F 43.1 °F 42.8 °F 93% 30.44 in 2.0 mi ENE 3.5 mph - N/A   Overcast
5:53 PM 44.6 °F - 44.6 °F 100% 30.43 in 1.8 mi Calm Calm - 0.00 in Rain Light Rain
5:54 PM 45.0 °F - 44.1 °F 97% 30.43 in 1.8 mi Calm Calm - 0.00 in Rain Light Rain
6:12 PM 44.6 °F 43.1 °F 44.6 °F 100% 30.43 in 2.5 mi ENE 3.5 mph - 0.00 in   Overcast
6:24 PM 44.6 °F 42.2 °F 42.8 °F 93% 30.43 in 3.0 mi ENE 4.6 mph - 0.00 in   Overcast
6:55 PM 44.6 °F 43.1 °F 42.8 °F 93% 30.42 in 4.0 mi East 3.5 mph - N/A   Overcast
7:55 PM 44.1 °F 41.5 °F 43.0 °F 96% 30.42 in 10.0 mi East 4.6 mph - N/A   Overcast
8:17 PM 44.6 °F 43.1 °F 42.8 °F 93% 30.42 in 10.0 mi East 3.5 mph - N/A   Overcast
8:55 PM 44.1 °F - 43.0 °F 96% 30.43 in 3.0 mi Calm Calm - 0.01 in Rain Light Rain
9:43 PM 44.6 °F - 42.8 °F 93% 30.43 in 2.5 mi Calm Calm - 0.00 in   Overcast
9:55 PM 44.6 °F - 42.8 °F 93% 30.43 in 2.5 mi Calm Calm - N/A   Overcast
10:05 PM 44.6 °F - 42.8 °F 93% 30.43 in 3.0 mi Calm Calm - N/A   Overcast
10:35 PM 44.6 °F - 42.8 °F 93% 30.43 in 4.0 mi Calm Calm - N/A   Overcast
10:55 PM 44.1 °F 42.5 °F 43.0 °F 96% 30.43 in 6.0 mi SSE 3.5 mph - N/A   Overcast
11:28 PM 44.6 °F - 44.6 °F 100% 30.42 in 10.0 mi Calm Calm - N/A   Overcast
11:55 PM 45.0 °F - 44.1 °F 97% 30.41 in 10.0 mi Calm Calm - N/A   Overcast
12:09 AM 44.6 °F 43.1 °F 44.6 °F 100% 30.42 in 10.0 mi NE 3.5 mph - N/A   Overcast
12:55 AM 45.0 °F - 44.1 °F 97% 30.42 in 2.5 mi Calm Calm - N/A   Overcast